| time (UTC) | temp F | wind direction | speed knots | gust knots | rain 1hr in | rain 24hr in | rain mn in | humidity % | barometer mb |
| 20260508014536 | 0 | 272 | 12.2 | 19.1 | 0.00 | 0.00 | 0.00 | 1013.3 | |
| 20260508013029 | 0 | 267 | 13.9 | 20.9 | 0.00 | 0.00 | 0.00 | 1013.4 | |
| 20260508011526 | 0 | 250 | 12.2 | 21.7 | 0.00 | 0.00 | 0.00 | 1013.6 | |
| 20260508010009 | 0 | 266 | 16.5 | 23.5 | 0.00 | 0.00 | 0.00 | 1013.4 | |
| 20260508004504 | 0 | 266 | 13.0 | 20.0 | 0.00 | 0.00 | 0.00 | 1013.7 | |
| 20260508003059 | 0 | 231 | 9.6 | 18.2 | 0.00 | 0.00 | 0.00 | 1013.8 | |
| 20260508001613 | 0 | 216 | 12.2 | 20.9 | 0.00 | 0.00 | 0.00 | 1013.9 | |
| 20260508000049 | 0 | 274 | 11.3 | 15.6 | 0.00 | 0.00 | 0.00 | 1013.9 | |
| 20260507234547 | 0 | 226 | 9.6 | 15.6 | 0.00 | 0.00 | 0.00 | 1013.7 | |
| 20260507233041 | 0 | 250 | 10.4 | 20.9 | 0.00 | 0.00 | 0.00 | 1013.8 | |
| 20260507231537 | 0 | 272 | 14.8 | 20.9 | 0.00 | 0.00 | 0.00 | 1013.8 | |
| 20260507230014 | 0 | 262 | 12.2 | 0.0 | 0.00 | 0.00 | 0.00 | 1013.9 | |
| 20260507224510 | 0 | 264 | 11.3 | 19.1 | 0.00 | 0.00 | 0.00 | 1014.0 | |
| 20260507223048 | 0 | 241 | 10.4 | 18.2 | 0.00 | 0.00 | 0.00 | 1014.1 | |
| 20260507221544 | 0 | 267 | 10.4 | 18.2 | 0.00 | 0.00 | 0.00 | 1014.2 | |
| 20260507220037 | 0 | 248 | 9.6 | 18.2 | 0.00 | 0.00 | 0.00 | 1014.5 | |
| 20260507214518 | 0 | 245 | 7.8 | 13.9 | 0.00 | 0.00 | 0.00 | 1014.6 | |
| 20260507213016 | 0 | 248 | 7.0 | 13.9 | 0.00 | 0.00 | 0.00 | 1014.7 | |
| 20260507211511 | 0 | 256 | 9.6 | 14.8 | 0.00 | 0.00 | 0.00 | 1014.7 | |
| 20260507210007 | 0 | 259 | 7.8 | 13.9 | 0.00 | 0.00 | 0.00 | 1014.8 | |
| 20260507204506 | 0 | 250 | 10.4 | 16.5 | 0.00 | 0.00 | 0.00 | 1014.9 | |
| 20260507203007 | 0 | 258 | 10.4 | 15.6 | 0.00 | 0.00 | 0.00 | 1015.1 | |
| 20260507201600 | 0 | 257 | 6.1 | 13.0 | 0.00 | 0.00 | 0.00 | 1015.2 | |
| 20260507200042 | 0 | 253 | 7.0 | 13.9 | 0.00 | 0.00 | 0.00 | 1015.4 | |
| 20260507194543 | 0 | 262 | 5.2 | 12.2 | 0.00 | 0.00 | 0.00 | 1015.5 | |
| 20260507193040 | 0 | 259 | 7.0 | 10.4 | 0.00 | 0.00 | 0.00 | 1015.6 | |
| 20260507191540 | 0 | 252 | 4.3 | 12.2 | 0.00 | 0.00 | 0.00 | 1015.7 | |
| 20260507190039 | 0 | 250 | 7.8 | 12.2 | 0.00 | 0.00 | 0.00 | 1015.6 | |
| 20260507184539 | 0 | 219 | 6.1 | 11.3 | 0.00 | 0.00 | 0.00 | 1015.9 | |
| 20260507183038 | 0 | 223 | 7.0 | 13.9 | 0.00 | 0.00 | 0.00 | 1015.9 | |
| 20260507181537 | 0 | 257 | 6.1 | 13.9 | 0.00 | 0.00 | 0.00 | 1016.0 | |
| 20260507180025 | 0 | 265 | 7.0 | 13.0 | 0.00 | 0.00 | 0.00 | 1016.2 | |
| 20260507174535 | 0 | 258 | 7.0 | 16.5 | 0.00 | 0.00 | 0.00 | 1016.1 | |
| 20260507173027 | 0 | 259 | 8.7 | 15.6 | 0.00 | 0.00 | 0.00 | 1016.1 | |
| 20260507171518 | 0 | 250 | 7.0 | 14.8 | 0.00 | 0.00 | 0.00 | 1016.1 | |
| 20260507170012 | 0 | 251 | 9.6 | 14.8 | 0.00 | 0.00 | 0.00 | 1015.9 | |
| 20260507164509 | 0 | 240 | 8.7 | 13.9 | 0.00 | 0.00 | 0.00 | 1016.2 | |
| 20260507163005 | 0 | 264 | 7.8 | 16.5 | 0.00 | 0.00 | 0.00 | 1016.3 | |
| 20260507161601 | 0 | 255 | 7.0 | 14.8 | 0.00 | 0.00 | 0.00 | 1016.4 | |
| 20260507160042 | 0 | 223 | 10.4 | 18.2 | 0.00 | 0.00 | 0.00 | 1016.0 | |
| 20260507154539 | 0 | 250 | 11.3 | 18.2 | 0.00 | 0.00 | 0.00 | 1016.2 | |
| 20260507153023 | 0 | 221 | 10.4 | 16.5 | 0.00 | 0.00 | 0.00 | 1016.2 | |
| 20260507151518 | 0 | 0.0 | 0.0 | 0.00 | 0.00 | 0.00 | 1016.2 | ||
| 20260507150015 | 0 | 0.0 | 0.0 | 0.00 | 0.00 | 0.00 | 1016.1 | ||
| 20260507144511 | 0 | 0.0 | 0.0 | 0.00 | 0.00 | 0.00 | 1016.1 | ||
| 20260507143004 | 0 | 0.0 | 0.0 | 0.00 | 0.00 | 0.00 | 1016.1 | ||
| 20260507141600 | 0 | 0.0 | 0.0 | 0.00 | 0.00 | 0.00 | 1016.2 | ||
| 20260507140058 | 0 | 0.0 | 0.0 | 0.00 | 0.00 | 0.00 | 1016.2 | ||
| 20260507134554 | 0 | 0.0 | 0.0 | 0.00 | 0.00 | 0.00 | 1016.1 | ||
| 20260507133048 | 0 | 0.0 | 0.0 | 0.00 | 0.00 | 0.00 | 1016.0 | ||
| 20260507131534 | 0 | 0.0 | 0.0 | 0.00 | 0.00 | 0.00 | 1015.7 | ||
| 20260507130021 | 0 | 0.0 | 0.0 | 0.00 | 0.00 | 0.00 | 1015.6 | ||
| 20260507124559 | 0 | 0.0 | 0.0 | 0.00 | 0.00 | 0.00 | 1015.6 | ||
| 20260507123056 | 0 | 0.0 | 0.0 | 0.00 | 0.00 | 0.00 | 1015.7 | ||
| 20260507121539 | 0 | 0.0 | 0.0 | 0.00 | 0.00 | 0.00 | 1016.0 | ||
| 20260507120040 | 0 | 0.0 | 0.0 | 0.00 | 0.00 | 0.00 | 1015.8 | ||
| 20260507114528 | 0 | 0.0 | 0.0 | 0.00 | 0.00 | 0.00 | 1015.7 | ||
| 20260507113024 | 0 | 0.0 | 0.0 | 0.00 | 0.00 | 0.00 | 1015.2 | ||
| 20260507111520 | 0 | 0.0 | 0.0 | 0.00 | 0.00 | 0.00 | 1015.0 | ||
| 20260507110016 | 0 | 0.0 | 0.0 | 0.00 | 0.00 | 0.00 | 1014.8 | ||
| 20260507104512 | 0 | 0.0 | 0.0 | 0.00 | 0.00 | 0.00 | 1014.8 | ||
| 20260507103007 | 0 | 0.0 | 0.0 | 0.00 | 0.00 | 0.00 | 1014.5 | ||
| 20260507101557 | 0 | 0.0 | 0.0 | 0.00 | 0.00 | 0.00 | 1014.4 | ||
| 20260507100046 | 0 | 0.0 | 0.0 | 0.00 | 0.00 | 0.00 | 1014.5 | ||
| 20260507094541 | 0 | 0.0 | 0.0 | 0.00 | 0.00 | 0.00 | 1014.5 | ||
| 20260507093037 | 0 | 257 | 20.0 | 29.5 | 0.00 | 0.00 | 0.00 | 1014.5 | |
| 20260507091532 | 0 | 289 | 20.0 | 26.9 | 0.00 | 0.00 | 0.00 | 1014.4 | |
| 20260507090027 | 0 | 271 | 20.0 | 26.9 | 0.00 | 0.00 | 0.00 | 1014.7 | |
| 20260507084522 | 0 | 263 | 19.1 | 25.2 | 0.00 | 0.00 | 0.00 | 1014.9 | |
| 20260507083018 | 0 | 261 | 16.5 | 24.3 | 0.00 | 0.00 | 0.00 | 1014.9 | |
| 20260507081501 | 0 | 278 | 16.5 | 25.2 | 0.00 | 0.00 | 0.00 | 1014.9 | |
| 20260507074607 | 0 | 269 | 16.5 | 24.3 | 0.00 | 0.00 | 0.00 | 1015.0 | |
| 20260507073049 | 0 | 258 | 17.4 | 26.1 | 0.00 | 0.00 | 0.00 | 1015.0 | |
| 20260507071544 | 0 | 261 | 20.0 | 0.0 | 0.00 | 0.00 | 0.00 | 1014.8 | |
| 20260507070041 | 0 | 266 | 17.4 | 23.5 | 0.00 | 0.00 | 0.00 | 1015.0 | |
| 20260507064535 | 0 | 249 | 16.5 | 23.5 | 0.00 | 0.00 | 0.00 | 1015.2 | |
| 20260507063031 | 0 | 263 | 15.6 | 21.7 | 0.00 | 0.00 | 0.00 | 1015.5 | |
| 20260507061509 | 0 | 272 | 15.6 | 23.5 | 0.00 | 0.00 | 0.00 | 1015.6 | |
| 20260507060004 | 0 | 248 | 16.5 | 23.5 | 0.00 | 0.00 | 0.00 | 1015.6 | |
| 20260507054621 | 0 | 264 | 15.6 | 21.7 | 0.00 | 0.00 | 0.00 | 1015.8 | |
| 20260507053049 | 0 | 256 | 13.9 | 20.0 | 0.00 | 0.00 | 0.00 | 1016.0 | |
| 20260507051539 | 0 | 260 | 12.2 | 17.4 | 0.00 | 0.00 | 0.00 | 1016.2 | |
| 20260507050034 | 0 | 230 | 11.3 | 16.5 | 0.00 | 0.00 | 0.00 | 1016.3 | |
| 20260507044530 | 0 | 261 | 10.4 | 16.5 | 0.00 | 0.00 | 0.00 | 1016.2 | |
| 20260507043025 | 0 | 261 | 9.6 | 19.1 | 0.00 | 0.00 | 0.00 | 1016.1 | |
| 20260507041519 | 0 | 254 | 12.2 | 21.7 | 0.00 | 0.00 | 0.00 | 1016.1 | |
| 20260507040015 | 0 | 248 | 11.3 | 20.0 | 0.00 | 0.00 | 0.00 | 1015.8 | |
| 20260507034602 | 0 | 263 | 12.2 | 20.9 | 0.00 | 0.00 | 0.00 | 1015.7 | |
| 20260507033104 | 0 | 258 | 11.3 | 19.1 | 0.00 | 0.00 | 0.00 | 1015.6 | |
| 20260507031604 | 0 | 264 | 11.3 | 20.0 | 0.00 | 0.00 | 0.00 | 1015.5 | |
| 20260507030054 | 0 | 259 | 10.4 | 20.9 | 0.00 | 0.00 | 0.00 | 1015.5 | |
| 20260507024547 | 0 | 259 | 9.6 | 20.0 | 0.00 | 0.00 | 0.00 | 1015.5 | |
| 20260507023054 | 0 | 230 | 11.3 | 20.0 | 0.00 | 0.00 | 0.00 | 1015.5 | |
| 20260507021546 | 0 | 257 | 11.3 | 18.2 | 0.00 | 0.00 | 0.00 | 1015.2 | |
| 20260507020048 | 0 | 264 | 11.3 | 20.9 | 0.00 | 0.00 | 0.00 | 1015.2 |